Latest Weather Observations for Julia Creek

IDQ60801

Issued at 10:32 pm EST Wednesday 10 February 2016 (issued every 30 minutes, with the page automatically refreshed every 10 minutes)

About weather observations | Map of weather stations | Latest weather observations for QLD | Other Formats
Station Details ID: 029058 Name: JULIA CREEK AIRPORT Lat: -20.67 Lon: 141.72 Height: 122.5 m
Data from the previous 72 hours. | See also: Recent months at Julia Creek
Date/Time
EST
Temp
°C
App
Temp
°C
Dew
Point
Rel
Hum
%
Delta-T
°C
Wind Press
QNH
hPa
Press
MSL
hPa
Rain
since 9 am
mm
Dir
 
Spd
km/h
Gust
km/h
Spd
kts
Gust
kts
10/10:30pm 29.2 27.9 12.6 36 9.8 ENE 11 17 6 9 1008.1 1007.2 0.0
10/10:00pm 29.7 28.0 11.2 31 10.7 SE 11 15 6 8 1007.8 1006.9 0.0
10/09:30pm 30.7 28.6 11.1 30 11.4 SE 13 17 7 9 1007.7 1006.8 0.0
10/09:00pm 31.6 30.3 12.4 31 11.4 SE 11 13 6 7 1007.3 1006.4 0.0
10/08:30pm 32.7 31.5 12.9 30 11.9 SE 11 13 6 7 1006.8 1005.9 0.0
10/08:00pm 33.7 31.9 13.2 29 12.5 SE 15 20 8 11 1006.7 1005.8 0.0
10/07:30pm 34.5 32.3 12.2 26 13.4 SE 15 20 8 11 1006.4 1005.5 0.0
10/07:00pm 35.4 32.2 11.1 23 14.4 ESE 19 26 10 14 1005.9 1005.0 0.0
10/06:30pm 35.8 32.3 12.1 24 14.3 SE 22 32 12 17 1005.4 1004.5 0.0
10/06:00pm 36.0 32.2 12.3 24 14.3 SE 24 30 13 16 1005.2 1004.3 0.0
10/05:30pm 37.4 33.7 11.4 21 15.6 SE 22 30 12 16 1004.8 1003.9 0.0
10/05:00pm 37.7 33.6 11.6 21 15.7 SSE 24 33 13 18 1004.8 1003.9 0.0
10/04:30pm 37.7 33.6 11.6 21 15.7 SE 24 43 13 23 1004.8 1003.9 0.0
10/04:00pm 38.2 35.5 13.4 23 15.4 SE 20 32 11 17 1004.9 1004.0 0.0
10/03:30pm 37.1 34.1 12.5 23 15.0 SSE 20 28 11 15 1005.1 1004.2 0.0
10/03:00pm 37.7 35.2 12.3 22 15.5 SSE 17 24 9 13 1005.4 1004.5 0.0
10/02:30pm 36.3 33.9 12.5 24 14.4 SSE 17 26 9 14 1006.1 1005.2 0.0
10/02:00pm 37.3 35.5 13.3 23 14.8 ESE 15 26 8 14 1006.6 1005.7 0.0
10/01:30pm 36.0 35.0 14.6 27 13.4 ESE 13 24 7 13 1007.1 1006.2 0.0
10/01:00pm 36.0 36.0 16.2 31 12.7 ESE 11 24 6 13 1007.8 1006.9 0.0
10/12:30pm 35.1 36.1 17.8 36 11.3 E 9 20 5 11 1008.4 1007.5 0.0
10/12:00pm 33.9 35.2 18.4 40 10.1 ESE 9 19 5 10 1008.7 1007.8 0.0
10/11:30am 33.4 35.7 19.8 44 9.0 E 7 19 4 10 1009.0 1008.1 0.0
10/11:00am 32.8 35.1 20.7 49 8.1 E 9 17 5 9 1009.3 1008.4 0.0
10/10:30am 32.3 34.9 21.2 52 7.5 E 9 17 5 9 1009.6 1008.7 0.0
10/10:00am 31.7 34.9 21.2 53 7.1 ESE 6 11 3 6 1009.7 1008.8 0.0
10/09:30am 31.1 34.3 21.6 57 6.4 ESE 7 13 4 7 1009.7 1008.8 0.0
10/09:00am 30.2 33.6 21.0 58 6.2 SE 4 9 2 5 1009.5 1008.6 0.0
10/08:30am 29.1 32.6 21.8 64 4.9 SE 6 9 3 5 1009.5 1008.6 0.0
10/08:00am 27.9 32.4 22.2 71 3.9 SSE 2 6 1 3 1009.2 1008.3 0.0
10/07:30am 26.8 31.4 22.4 77 3.0 SSE 2 6 1 3 1009.0 1008.1 0.0
10/07:00am 25.9 30.8 22.4 81 2.4 CALM 0 0 0 0 1008.5 1007.6 0.0
10/06:30am 25.6 30.6 22.5 83 2.1 CALM 0 0 0 0 1008.1 1007.2 0.0
10/06:00am 25.6 30.6 22.5 83 2.1 CALM 0 4 0 2 1007.7 1006.8 0.0
10/05:30am 25.6 29.6 22.7 84 2.0 N 6 7 3 4 1007.4 1006.5 0.0
10/05:00am 25.6 30.2 22.5 83 2.1 NNW 2 6 1 3 1007.4 1006.5 0.0
10/04:30am 25.6 29.3 22.3 82 2.2 N 6 7 3 4 1007.2 1006.3 0.0
10/04:00am 25.6 30.2 22.5 83 2.1 WNW 2 6 1 3 1007.2 1006.3 0.0
10/03:30am 25.7 29.4 22.6 83 2.1 WNW 7 9 4 5 1007.3 1006.4 0.0
10/03:00am 25.7 28.9 22.4 82 2.2 WNW 9 13 5 7 1007.6 1006.7 0.0
10/02:30am 26.0 29.2 22.3 80 2.5 NW 9 13 5 7 1007.6 1006.7 0.0
10/02:00am 26.0 29.7 22.3 80 2.5 WSW 6 7 3 4 1007.6 1006.7 0.0
10/01:30am 26.1 29.7 22.0 78 2.8 WNW 6 9 3 5 1007.8 1006.9 0.0
10/01:00am 26.4 28.8 22.3 78 2.8 NW 13 19 7 10 1008.5 1007.6 0.0
10/12:30am 26.6 28.1 22.0 76 3.1 SW 17 22 9 12 1008.5 1007.6 0.0
10/12:00am 26.3 30.0 22.2 78 2.8 W 6 7 3 4 1008.4 1007.5 0.0
 
Date/Time
EST
Temp
°C
App
Temp
°C
Dew
Point
Rel
Hum
%
Delta-T
°C
Wind Press
QNH
hPa
Press
MSL
hPa
Rain
since 9 am
mm
Dir
 
Spd
km/h
Gust
km/h
Spd
kts
Gust
kts
09/11:30pm 26.4 28.9 22.5 79 2.6 WNW 13 19 7 10 1008.5 1007.6 0.0
09/11:00pm 27.2 28.9 22.4 75 3.3 NW 17 20 9 11 1008.4 1007.5 0.0
09/10:30pm 28.1 30.0 22.1 70 4.1 NW 15 24 8 13 1008.4 1007.5 0.0
09/10:00pm 29.0 29.9 21.5 64 5.1 N 19 24 10 13 1008.3 1007.4 0.0
09/09:30pm 28.6 31.2 21.9 67 4.5 N 11 17 6 9 1008.0 1007.1 0.0
09/09:00pm 27.7 28.8 22.0 71 3.9 NW 19 26 10 14 1007.3 1006.4 0.0
09/08:30pm 27.6 28.9 22.3 73 3.6 WNW 19 26 10 14 1007.0 1006.1 0.0
09/08:00pm 29.0 29.8 21.7 64 4.9 WNW 20 28 11 15 1006.7 1005.8 0.0
09/07:30pm 31.8 34.6 20.4 51 7.6 WNW 6 15 3 8 1006.2 1005.3 0.0
09/07:00pm 33.3 36.4 19.4 44 9.2 N 2 7 1 4 1005.7 1004.8 0.0
09/06:30pm 33.4 34.6 19.8 44 9.0 NNE 13 19 7 10 1005.1 1004.2 0.0
09/06:00pm 34.6 35.4 20.6 44 9.5 N 17 22 9 12 1005.1 1004.2 0.0
09/05:30pm 36.5 37.3 19.9 38 11.1 NE 15 19 8 10 1004.6 1003.7 0.0
09/05:00pm 36.7 36.4 19.2 36 11.7 NNE 19 24 10 13 1004.6 1003.7 0.0
09/04:30pm 37.3 37.8 18.3 32 12.5 ESE 13 22 7 12 1004.7 1003.8 0.0
09/04:00pm 35.8 38.0 19.3 38 11.0 NNE 6 9 3 5 1005.0 1004.1 0.0
09/03:30pm 34.9 36.8 18.9 39 10.6 NE 7 13 4 7 1005.3 1004.4 0.0
09/03:00pm 37.4 37.5 17.4 30 13.1 SE 13 22 7 12 1005.6 1004.7 0.0
09/02:30pm 37.2 38.5 19.2 35 12.0 ESE 11 20 6 11 1006.0 1005.1 0.0
09/02:00pm 36.9 38.6 18.4 33 12.2 ESE 7 17 4 9 1006.5 1005.6 0.0
09/01:30pm 37.5 39.2 19.4 34 12.1 E 9 19 5 10 1007.0 1006.1 0.0
09/01:00pm 37.5 39.5 19.9 35 11.9 ESE 9 22 5 12 1007.6 1006.7 0.0
09/12:30pm 36.1 38.1 19.9 38 10.9 E 9 19 5 10 1008.1 1007.2 0.0
09/12:00pm 37.3 39.5 21.8 40 10.7 ENE 13 20 7 11 1008.6 1007.7 0.0
09/11:30am 35.3 38.1 21.6 45 9.4 E 9 17 5 9 1009.0 1008.1 0.0
09/11:00am 34.9 38.2 21.9 46 8.9 E 7 15 4 8 1009.4 1008.5 0.0
09/10:30am 33.3 36.4 22.1 52 7.7 ENE 9 17 5 9 1009.6 1008.7 0.0
09/10:00am 32.9 35.9 22.0 52 7.5 NE 9 15 5 8 1009.8 1008.9 0.0
09/09:30am 32.6 35.3 22.1 54 7.2 NE 11 20 6 11 1009.9 1009.0 0.0
09/09:00am 31.8 34.0 21.9 55 6.7 ENE 13 20 7 11 1009.9 1009.0 -
09/08:30am 30.7 32.6 22.0 59 5.9 ESE 15 20 8 11 1009.9 1009.0 -
09/08:00am 29.4 30.7 21.6 63 5.3 ESE 17 22 9 12 1009.6 1008.7 -
09/07:30am 28.4 30.0 21.4 66 4.7 SE 15 19 8 10 1009.5 1008.6 -
09/07:00am 27.4 30.7 21.4 70 4.0 SE 6 9 3 5 1009.0 1008.1 -
09/06:30am 26.4 30.2 20.9 72 3.6 SE 2 4 1 2 1008.8 1007.9 -
09/06:00am 26.7 30.9 21.0 71 3.8 CALM 0 0 0 0 1008.4 1007.5 -
09/05:30am 27.3 30.2 21.1 69 4.1 ESE 7 11 4 6 1008.2 1007.3 -
09/05:00am 27.6 29.8 21.2 68 4.3 ESE 11 15 6 8 1007.9 1007.0 -
09/04:30am 27.4 30.6 21.2 69 4.1 E 6 11 3 6 1007.8 1006.9 -
09/04:00am 27.4 30.0 21.2 69 4.1 ESE 9 11 5 6 1007.6 1006.7 -
09/03:30am 27.9 29.4 21.2 67 4.5 ESE 15 19 8 10 1007.5 1006.6 -
09/03:00am 28.1 29.9 21.1 65 4.7 SE 13 17 7 9 1007.8 1006.9 -
09/02:30am 28.3 29.9 20.8 63 5.0 SE 13 19 7 10 1007.9 1007.0 -
09/02:00am 28.8 30.0 20.0 59 5.8 SE 13 20 7 11 1008.2 1007.3 -
09/01:30am 29.5 29.7 20.1 57 6.2 SE 19 24 10 13 1008.2 1007.3 -
09/01:00am 29.7 30.3 20.3 57 6.2 ESE 17 20 9 11 1008.3 1007.4 -
09/12:30am 30.1 31.0 20.1 55 6.6 SE 15 22 8 12 1008.4 1007.5 -
09/12:00am 30.7 30.8 20.0 52 7.1 ESE 19 24 10 13 1008.5 1007.6 -
 
Date/Time
EST
Temp
°C
App
Temp
°C
Dew
Point
Rel
Hum
%
Delta-T
°C
Wind Press
QNH
hPa
Press
MSL
hPa
Rain
since 9 am
mm
Dir
 
Spd
km/h
Gust
km/h
Spd
kts
Gust
kts
08/11:30pm 30.8 31.0 20.1 53 7.1 ESE 19 24 10 13 1008.8 1007.9 -
08/11:00pm 30.4 31.6 20.6 55 6.5 ESE 15 22 8 12 1008.5 1007.6 -
08/10:00pm 30.1 32.0 20.6 56 6.3 NE 11 15 6 8 1008.0 1007.1 0.0
08/09:30pm 30.5 31.6 20.4 54 6.7 NNE 15 22 8 12 1007.8 1006.9 0.0
08/09:00pm 31.3 32.3 20.3 52 7.3 NNE 15 20 8 11 1007.8 1006.9 0.0
08/08:30pm 31.2 31.9 20.5 53 7.1 N 17 26 9 14 1007.4 1006.5 0.0
08/08:00pm 33.1 33.9 20.6 47 8.4 N 17 24 9 13 1007.3 1006.4 0.0
08/07:30pm 33.6 35.0 20.4 46 8.9 ENE 13 20 7 11 1006.5 1005.6 0.0
08/07:00pm 36.0 37.7 18.6 36 11.5 ENE 7 28 4 15 1006.0 1005.1 0.0
08/06:30pm 36.1 37.3 19.1 36 11.3 ENE 11 17 6 9 1005.7 1004.8 0.0
08/06:00pm 35.6 36.6 19.5 38 10.8 ESE 13 20 7 11 1005.7 1004.8 0.0
08/05:30pm 35.2 34.7 19.1 38 10.7 ENE 20 32 11 17 1005.4 1004.5 0.0
08/05:00pm 39.2 39.7 18.4 29 13.8 ESE 13 22 7 12 1004.9 1004.0 0.0
08/04:30pm 38.4 37.1 17.2 28 13.8 SSE 20 30 11 16 1004.6 1003.7 0.0
08/04:00pm 39.9 38.4 18.5 28 14.3 S 24 35 13 19 1004.8 1003.9 0.0
08/03:30pm 39.1 39.5 17.2 27 14.3 S 11 20 6 11 1005.0 1004.1 0.0
08/03:00pm 40.2 40.6 18.2 27 14.6 S 13 28 7 15 1005.3 1004.4 0.0
08/02:30pm 39.8 41.0 17.3 27 14.7 S 7 20 4 11 1005.8 1004.9 0.0
08/02:00pm 38.9 40.2 17.6 28 14.0 SE 7 19 4 10 1006.3 1005.4 0.0
08/01:30pm 38.0 37.9 17.9 30 13.2 SSE 15 22 8 12 1006.7 1005.8 0.0
08/01:00pm 38.0 38.7 17.9 30 13.2 E 11 24 6 13 1007.3 1006.4 0.0
08/12:30pm 38.7 39.8 18.0 29 13.6 ESE 9 22 5 12 1007.9 1007.0 0.0
08/12:00pm 37.8 38.1 18.7 32 12.7 E 15 24 8 13 1008.6 1007.7 0.0
08/11:30am 37.4 38.8 21.1 38 11.1 ESE 15 22 8 12 1009.0 1008.1 0.0
08/11:00am 36.3 38.6 22.1 43 9.8 ESE 13 22 7 12 1009.4 1008.5 0.0
08/10:30am 35.1 36.4 21.7 45 9.2 ESE 17 24 9 13 1009.6 1008.7 0.0
08/10:00am 33.8 34.9 21.9 49 8.2 SE 19 28 10 15 1009.6 1008.7 0.0
08/09:30am 33.0 33.6 22.1 52 7.5 SE 22 32 12 17 1009.6 1008.7 0.0
08/09:00am 31.6 31.8 22.0 56 6.5 SE 24 30 13 16 1009.7 1008.8 0.0
08/08:30am 30.3 29.9 21.7 60 5.8 SE 26 32 14 17 1009.6 1008.7 0.0
08/08:00am 29.5 29.5 21.7 63 5.3 SSE 24 32 13 17 1009.3 1008.4 0.0
08/07:30am 28.6 28.9 21.6 66 4.7 SE 22 32 12 17 1009.3 1008.4 0.0
08/07:00am 27.6 28.1 21.2 68 4.3 SE 20 28 11 15 1008.8 1007.9 0.0
08/06:30am 27.2 28.2 21.0 69 4.1 SE 17 24 9 13 1008.3 1007.4 0.0
08/06:00am 27.3 28.1 20.6 67 4.4 SE 17 20 9 11 1008.0 1007.1 0.0
08/05:30am 27.5 28.3 20.6 66 4.6 SSE 17 22 9 12 1007.7 1006.8 0.0
08/05:00am 27.8 28.1 20.4 64 4.9 SE 19 24 10 13 1007.7 1006.8 0.0
08/04:30am 28.2 28.4 20.5 63 5.1 SE 20 26 11 14 1007.7 1006.8 0.0
08/04:00am 28.6 28.4 20.6 62 5.3 SE 22 35 12 19 1007.6 1006.7 0.0
08/03:30am 29.1 29.0 20.8 61 5.5 SE 22 32 12 17 1007.8 1006.9 0.0
08/03:00am 29.8 29.5 20.4 57 6.3 SE 22 30 12 16 1007.7 1006.8 0.0
08/02:30am 30.4 29.3 19.4 51 7.2 SE 24 32 13 17 1007.8 1006.9 0.0
08/02:00am 30.9 29.3 18.3 47 8.2 SSE 24 32 13 17 1007.8 1006.9 0.0
08/01:30am 30.9 29.7 17.6 45 8.5 SSE 20 30 11 16 1007.9 1007.0 0.0
08/01:00am 31.3 30.3 17.6 44 8.8 SSE 19 26 10 14 1008.1 1007.2 0.0
08/12:30am 31.1 31.9 18.1 46 8.4 S 11 19 6 10 1008.3 1007.4 0.0
08/12:00am 30.3 31.9 14.8 39 9.5 CALM 0 0 0 0 1008.1 1007.2 0.0
 
Date/Time
EST
Temp
°C
App
Temp
°C
Dew
Point
Rel
Hum
%
Delta-T
°C
Wind Press
QNH
hPa
Press
MSL
hPa
Rain
since 9 am
mm
Dir
 
Spd
km/h
Gust
km/h
Spd
kts
Gust
kts
07/11:30pm 31.4 32.8 14.5 35 10.4 CALM 0 0 0 0 1008.1 1007.2 0.0
07/11:00pm 32.0 33.3 14.2 34 10.9 CALM 0 2 0 1 1008.0 1007.1 0.0

Other Formats:

Comma delimited format used in spreadsheet applications
http://www.bom.gov.au/fwo/IDQ60801/IDQ60801.94337.axf

JavaScript Object Notation format (JSON) in row-major order
http://www.bom.gov.au/fwo/IDQ60801/IDQ60801.94337.json